[[{"header":{"parameterUnit":"m.s-1","parameterCategory":1,"la1":30.2991,"la2":30.254,"lo1":-89.0895,"lo2":-89.0444,"dy":0.0017,"dx":0.0017,"nx":28,"ny":28,"refTime":"2024-08-24T09:00:00:Z","depth":0,"parameterNumber":2,"parameterNumberName":"U-component_of_WINDS"},"data":[0,0,0,0,0,0,0,0,0,0,0,0,0,0,0,0,0,0,0,0,0,0,0,0,0,0,0,0,0,0,0,0,0,0,0,0,0,0,0,0,0,0,0,0,0,0,0,0,0,0,0,0,0,0,0,0,0,0,-4.2237,-4.2237,0,-4.2261,-4.2261,-4.2261,-4.2113,-4.2109,-4.2105,-4.2101,-4.2123,-4.2127,-4.2132,0,0,0,0,0,0,0,0,0,0,0,0,0,-4.206,-4.2064,-4.2237,-4.2237,-4.2237,-4.2261,-4.2261,-4.2261,-4.2114,-4.2109,-4.2104,-4.2099,-4.2122,-4.2127,-4.2132,0,0,0,0,0,0,0,0,0,0,0,0,0,-4.2116,-4.2066,-4.2237,-4.2167,-4.2161,-4.2261,-4.2261,-4.2261,-4.2115,-4.2109,-4.2103,-4.2097,-4.212,-4.2126,-4.2133,-4.23,0,0,-4.2154,-4.2156,0,0,0,0,0,0,0,0,-4.2113,-4.2122,-4.2177,-4.2172,-4.2165,-4.2178,-4.2207,-4.2274,-4.2117,-4.2132,-4.2101,-4.2094,-4.2146,-4.215,-4.2168,-4.2301,-4.2302,-4.2154,-4.2158,-4.2161,-4.2163,0,0,0,0,0,0,0,-4.2109,-4.2121,-4.2246,-4.2178,-4.2171,-4.2133,-4.2134,-4.2219,-4.2174,-4.2131,-4.212,-4.2125,-4.2142,-4.2162,-4.2168,-4.2303,-4.2154,-4.216,-4.2164,-4.2167,-4.2573,-4.2579,0,0,0,0,0,0,-4.2115,-4.2118,-4.2245,-4.2247,-4.2123,-4.2141,-4.2142,-4.218,-4.2173,-4.2166,-4.213,-4.2118,-4.2154,-4.216,-4.2168,-4.2363,-4.2161,-4.2167,-4.2171,-4.2566,-4.2574,-4.2582,0,0,0,0,0,0,-4.2112,-4.2128,-4.2244,-4.218,-4.2192,-4.2151,-4.2194,-4.2184,-4.2204,-4.2173,-4.2164,-4.216,-4.2149,-4.2159,-4.2268,-4.2362,-4.217,-4.2177,-4.2558,-4.2569,-4.2578,-4.2755,0,0,0,0,0,0,-4.2108,-4.2128,-4.2192,-4.2182,-4.2196,-4.2346,-4.22,-4.2189,-4.2217,-4.2201,-4.2198,-4.2191,-4.2145,-4.2259,-4.2275,-4.2367,-4.2182,-4.255,-4.2563,-4.2575,-4.274,-4.277,-4.2795,0,0,0,0,0,-4.2102,-4.224,-4.2196,-4.2212,-4.2275,-4.2352,-4.2359,-4.2304,-4.2225,-4.2288,-4.2268,-4.2191,-4.2349,-4.2272,-4.2288,-4.2384,-4.2544,-4.2559,-4.2574,-4.2728,-4.2764,-4.2794,0,0,0,0,0,0,-4.2261,-4.2238,-4.2188,-4.2328,-4.2343,-4.2327,-4.2405,-4.2343,-4.238,-4.2364,-4.2293,-4.2293,-4.2415,-4.241,-4.2325,-4.2545,-4.2432,-4.2452,-4.2544,-4.2578,-4.2604,-4.2603,-4.2187,0,0,0,0,0,-4.2312,-4.2377,-4.2353,-4.2479,-4.2489,-4.2446,-4.2477,-4.2433,-4.2446,-4.2451,-4.2438,-4.2453,-4.2505,-4.2541,-4.2587,-4.2739,-4.2736,-4.2813,-4.284,-4.2863,-4.288,-4.2959,-4.2993,-4.2632,-4.2631,-4.2631,0,0,-4.2419,-4.2414,-4.2459,-4.251,-4.2517,-4.2585,-4.2452,-4.253,-4.2579,-4.2462,-4.2565,-4.2557,-4.2568,-4.2699,-4.2757,-4.2699,-4.2979,-4.2882,-4.29,-4.2905,-4.2978,-4.3012,-4.3043,-4.2642,-4.264,-4.2638,0,0,-4.2647,-4.2651,-4.2756,-4.2765,-4.2777,-4.2748,-4.2773,-4.2766,-4.2756,-4.2859,-4.2772,-4.2829,-4.2922,-4.2933,-4.2951,-4.3184,-4.3115,-4.3201,-4.3343,-4.342,-4.3449,-4.3474,-4.3556,-4.3587,-4.3218,-4.3219,-4.3219,0,-4.2778,-4.2878,-4.2817,-4.2901,-4.2925,-4.2824,-4.2928,-4.294,-4.2966,-4.2985,-4.2921,-4.3034,-4.3034,-4.3166,-4.3223,-4.3241,-4.3267,-4.3201,-4.345,-4.3474,-4.3496,-4.3574,-4.3606,-4.3229,-4.3228,-4.3227,-4.3226,0,-4.3038,-4.3108,-4.3191,-4.322,-4.3254,-4.3348,-4.33,-4.3341,-4.3295,-4.3272,-4.3377,-4.3374,-4.3418,-4.3446,-4.3401,-4.3572,-4.3536,-4.3462,-4.3347,-4.3542,-4.3614,-4.3644,-4.3244,-4.324,-4.3237,-4.3235,0,0,-4.3367,-4.3361,-4.3393,-4.3404,-4.341,-4.3463,-4.3551,-4.3595,-4.3632,-4.3653,-4.3725,-4.3805,-4.3737,-4.3757,-4.3712,-4.3781,-4.3965,-4.3698,-4.3697,-4.3747,-4.4153,-4.4208,-4.4244,-4.392,-4.3925,-4.3929,-4.4152,0,-4.359,-4.3743,-4.369,-4.3845,-4.3908,-4.3813,-4.389,-4.3901,-4.3882,-4.3933,-4.3911,-4.3969,-4.3875,-4.3886,-4.395,-4.393,-4.4045,-4.3913,-4.3985,-4.3988,-4.3985,-4.4281,-4.434,-4.455,-4.4179,-4.4184,-4.4187,0,-4.3871,-4.3905,-4.4066,-4.406,-4.4085,-4.4156,-4.4191,-4.4241,-4.4251,-4.4232,-4.4256,-4.4196,-4.4281,-4.4167,-4.4284,-4.4195,-4.4221,-4.4215,-4.4222,-4.4226,-4.4099,-4.4293,-4.4615,-4.4647,-4.4231,-4.4228,-4.4225,0,-4.4094,-4.418,-4.4287,-4.43,-4.4296,-4.4348,-4.4348,-4.4353,-4.4382,-4.4413,-4.4431,-4.4472,-4.4494,-4.4526,-4.4478,-4.44,-4.4601,-4.4483,-4.4587,-4.4589,-4.4633,-4.4631,-4.4964,-4.4652,-4.4652,-4.4651,-4.4651,0,-4.4349,-4.4451,-4.4387,-4.4454,-4.4565,-4.4503,-4.4615,-4.4604,-4.4609,-4.4671,-4.459,-4.4649,-4.4583,-4.4636,-4.4599,-4.4701,-4.4712,-4.4698,-4.4687,-4.4705,-4.4707,-4.4721,-4.4705,-4.466,-4.4658,-4.4656,-4.4655,0,-4.4617,-4.4578,-4.4689,-4.4676,-4.4676,-4.4758,-4.4747,-4.4807,-4.4782,-4.4861,-4.4876,-4.4837,-4.4895,-4.4851,-4.4908,-4.4883,-4.5017,-4.4986,-4.5014,-4.5005,-4.5112,-4.5102,-4.5465,-4.5509,-4.517,-4.5173,-4.5176,0,-4.4781,-4.4858,-4.4853,-4.4889,-4.4895,-4.4954,-4.4984,-4.4926,-4.496,-4.4978,-4.5036,-4.5087,-4.5125,-4.5222,-4.5198,-4.5241,-4.521,-4.5334,-4.5216,-4.5231,-4.5211,-4.5207,-4.5213,-4.5358,-4.5362,-4.5365,-4.5368,0,-4.5077,-4.5054,-4.51,-4.5141,-4.5179,-4.5208,-4.523,-4.5264,-4.5205,-4.5247,-4.5306,-4.5336,-4.5394,-4.5446,-4.548,-4.5479,-4.5414,-4.5405,-4.5431,-4.545,-4.5463,-4.5457,-4.5079,-4.5397,-4.5394,-4.5392,-4.539,-4.5389,-4.5297,-4.536,-4.5368,-4.5422,-4.5433,-4.5455,-4.5511,-4.5494,-4.5542,-4.5585,-4.5548,-4.5619,-4.5626,-4.5666,-4.5673,-4.5727,-4.5675,-4.5714,-4.5723,-4.5733,-4.5748,-4.5456,-4.5733,-4.5732,-4.5731,-4.5731,-4.573,0,-4.5588,-4.5588,-4.5638,-4.5672,-4.5715,-4.5651,-4.5672,-4.5711,-4.5775,-4.5788,-4.5827,-4.5894,-4.5944,-4.5925,-4.5968,-4.6015,-4.5986,-4.6028,-4.6024,-4.6024,-4.5792,-4.5765,-4.6051,-4.6051,-4.6051,-4.6051,-4.605,-4.605,-4.5744,-4.5847,-4.5826,-4.5934,-4.5932,-4.6001,-4.6018,-4.6039,-4.6048,-4.6128,-4.6169,-4.6156,-4.6156,-4.6199,-4.6241,-4.6234,-4.6254,-4.6307,-4.6289,-4.6072,-4.6041,-4.601,-4.5984,-4.6312,-4.6312,-4.6516,-4.6518,-4.652]},{"header":{"parameterUnit":"m.s-1","parameterCategory":1,"la1":30.2991,"la2":30.254,"lo1":-89.0895,"lo2":-89.0444,"dy":0.0017,"dx":0.0017,"nx":28,"ny":28,"refTime":"2024-08-24T09:00:00:Z","depth":0,"parameterNumber":3,"parameterNumberName":"V-component_of_WINDS"},"data":[0,0,0,0,0,0,0,0,0,0,0,0,0,0,0,0,0,0,0,0,0,0,0,0,0,0,0,0,0,0,0,0,0,0,0,0,0,0,0,0,0,0,0,0,0,0,0,0,0,0,0,0,0,0,0,0,0,0,-1.4534,-1.4536,0,-1.4672,-1.4673,-1.4675,-1.4722,-1.4721,-1.4721,-1.472,-1.4858,-1.4862,-1.4866,0,0,0,0,0,0,0,0,0,0,0,0,0,-1.4308,-1.4312,-1.4534,-1.4536,-1.4537,-1.4671,-1.4673,-1.4675,-1.4722,-1.4721,-1.4721,-1.472,-1.4857,-1.4861,-1.4866,0,0,0,0,0,0,0,0,0,0,0,0,0,-1.4422,-1.4313,-1.4534,-1.4577,-1.4582,-1.4671,-1.4673,-1.4676,-1.4722,-1.4721,-1.472,-1.472,-1.4855,-1.4861,-1.4867,-1.4922,0,0,-1.4886,-1.4889,0,0,0,0,0,0,0,0,-1.4415,-1.443,-1.4569,-1.4574,-1.458,-1.4679,-1.4644,-1.4758,-1.4722,-1.4669,-1.472,-1.4719,-1.4799,-1.481,-1.4837,-1.4928,-1.4934,-1.4887,-1.4891,-1.4893,-1.4895,0,0,0,0,0,0,0,-1.4407,-1.4424,-1.4588,-1.4571,-1.4578,-1.4588,-1.4604,-1.4666,-1.4737,-1.4673,-1.4677,-1.4693,-1.4802,-1.4831,-1.4841,-1.4936,-1.4887,-1.4892,-1.4896,-1.4899,-1.5078,-1.5079,0,0,0,0,0,0,-1.4392,-1.4417,-1.4584,-1.4593,-1.4494,-1.4593,-1.461,-1.4648,-1.4736,-1.4749,-1.4694,-1.4695,-1.4821,-1.4833,-1.4846,-1.4915,-1.4893,-1.4899,-1.4903,-1.5077,-1.5079,-1.508,0,0,0,0,0,0,-1.4387,-1.4407,-1.4579,-1.4506,-1.4529,-1.4598,-1.464,-1.4651,-1.4681,-1.4751,-1.4764,-1.4711,-1.4821,-1.4837,-1.4903,-1.4921,-1.4902,-1.4908,-1.5076,-1.5078,-1.5079,-1.5055,0,0,0,0,0,0,-1.4381,-1.4405,-1.4427,-1.4506,-1.4532,-1.4634,-1.4641,-1.4654,-1.4692,-1.4694,-1.4771,-1.4783,-1.4821,-1.4893,-1.4909,-1.4929,-1.4913,-1.5075,-1.5077,-1.5079,-1.5054,-1.5055,-1.5056,0,0,0,0,0,-1.4373,-1.4415,-1.4428,-1.4448,-1.4562,-1.4635,-1.465,-1.4695,-1.4693,-1.4715,-1.4761,-1.478,-1.4916,-1.4899,-1.4918,-1.494,-1.5074,-1.5076,-1.5079,-1.5054,-1.5055,-1.5056,0,0,0,0,0,0,-1.4335,-1.4426,-1.4442,-1.4511,-1.4565,-1.4643,-1.4673,-1.4695,-1.475,-1.475,-1.4801,-1.4818,-1.488,-1.4916,-1.4896,-1.4997,-1.4996,-1.5002,-1.4971,-1.4973,-1.4974,-1.4963,-1.4918,0,0,0,0,0,-1.4335,-1.4388,-1.4464,-1.4517,-1.4544,-1.4603,-1.4637,-1.4667,-1.4724,-1.4747,-1.4797,-1.4852,-1.4907,-1.4942,-1.4996,-1.506,-1.5076,-1.5084,-1.5085,-1.5085,-1.5089,-1.5125,-1.5129,-1.5087,-1.5087,-1.5087,0,0,-1.4335,-1.4391,-1.4421,-1.4511,-1.4557,-1.4609,-1.4622,-1.4678,-1.4717,-1.4755,-1.4821,-1.4859,-1.4923,-1.4988,-1.5019,-1.502,-1.5105,-1.5088,-1.5088,-1.5092,-1.5128,-1.5131,-1.5135,-1.5089,-1.5089,-1.5088,0,0,-1.4362,-1.441,-1.446,-1.4505,-1.4574,-1.4613,-1.4625,-1.47,-1.4727,-1.4794,-1.4824,-1.487,-1.4964,-1.5008,-1.5043,-1.5085,-1.5105,-1.5101,-1.5106,-1.514,-1.5143,-1.5146,-1.5161,-1.5165,-1.5105,-1.5105,-1.5105,0,-1.4353,-1.4435,-1.4482,-1.4536,-1.4574,-1.4612,-1.4662,-1.4703,-1.4785,-1.481,-1.4811,-1.4929,-1.4975,-1.505,-1.506,-1.5087,-1.5101,-1.5093,-1.5139,-1.5143,-1.5146,-1.5161,-1.5166,-1.5104,-1.5105,-1.5105,-1.5105,0,-1.442,-1.4476,-1.4507,-1.4587,-1.4629,-1.468,-1.4734,-1.477,-1.4795,-1.4834,-1.4901,-1.4957,-1.5023,-1.5043,-1.5068,-1.5121,-1.512,-1.5129,-1.5129,-1.5148,-1.5163,-1.5169,-1.5103,-1.5104,-1.5104,-1.5104,0,0,-1.4428,-1.4533,-1.4544,-1.458,-1.4658,-1.4702,-1.4754,-1.482,-1.4849,-1.4904,-1.4949,-1.5027,-1.5036,-1.5075,-1.5105,-1.5135,-1.5164,-1.514,-1.5142,-1.5142,-1.5225,-1.5217,-1.5223,-1.5177,-1.5179,-1.518,-1.5219,0,-1.4465,-1.4562,-1.4605,-1.4682,-1.4733,-1.4769,-1.4815,-1.4867,-1.4904,-1.4952,-1.4993,-1.5047,-1.5055,-1.5079,-1.511,-1.5154,-1.5181,-1.5151,-1.5218,-1.522,-1.5201,-1.5231,-1.5224,-1.5259,-1.5225,-1.5226,-1.5227,0,-1.4521,-1.4577,-1.4659,-1.4731,-1.4754,-1.4794,-1.4857,-1.4903,-1.4962,-1.4987,-1.503,-1.5059,-1.5114,-1.511,-1.5186,-1.5165,-1.5194,-1.522,-1.5222,-1.523,-1.5225,-1.5239,-1.5271,-1.5276,-1.5237,-1.5236,-1.5235,0,-1.4518,-1.4614,-1.4675,-1.4705,-1.479,-1.4817,-1.4854,-1.4912,-1.4949,-1.5003,-1.5027,-1.5087,-1.512,-1.5165,-1.5208,-1.5202,-1.5279,-1.5279,-1.5301,-1.53,-1.5316,-1.5314,-1.5352,-1.5335,-1.5335,-1.5335,-1.5335,0,-1.4555,-1.4603,-1.4675,-1.4712,-1.4767,-1.4816,-1.4869,-1.4907,-1.4959,-1.5004,-1.5038,-1.5079,-1.5135,-1.5182,-1.5217,-1.5274,-1.5288,-1.5309,-1.5317,-1.5306,-1.5303,-1.5326,-1.5325,-1.5336,-1.5336,-1.5336,-1.5335,0,-1.4561,-1.4611,-1.468,-1.4755,-1.4775,-1.4811,-1.4875,-1.4912,-1.4951,-1.5007,-1.5023,-1.5083,-1.5141,-1.5189,-1.5264,-1.5287,-1.5346,-1.5356,-1.5327,-1.5331,-1.535,-1.5347,-1.5404,-1.5413,-1.5389,-1.5389,-1.539,0,-1.4581,-1.4619,-1.4698,-1.4731,-1.4767,-1.482,-1.4857,-1.4906,-1.4943,-1.5013,-1.5041,-1.5102,-1.5153,-1.5243,-1.5292,-1.535,-1.5362,-1.5377,-1.5371,-1.5357,-1.5361,-1.5358,-1.5362,-1.5378,-1.5378,-1.5378,-1.5378,0,-1.4611,-1.4634,-1.4687,-1.4748,-1.4792,-1.4843,-1.4894,-1.4919,-1.4977,-1.5016,-1.5076,-1.5116,-1.5193,-1.5252,-1.5315,-1.5351,-1.5374,-1.538,-1.5388,-1.5376,-1.5357,-1.5367,-1.5328,-1.5378,-1.5378,-1.5378,-1.5378,-1.5378,-1.4624,-1.466,-1.4721,-1.4778,-1.4822,-1.4869,-1.4908,-1.4951,-1.5002,-1.507,-1.5095,-1.5156,-1.5213,-1.53,-1.5336,-1.5384,-1.5387,-1.5398,-1.5401,-1.5403,-1.5401,-1.5349,-1.5395,-1.5395,-1.5395,-1.5395,-1.5395,0,-1.4656,-1.4697,-1.4749,-1.482,-1.4865,-1.4884,-1.4941,-1.4977,-1.5031,-1.5083,-1.5132,-1.52,-1.5257,-1.5311,-1.5371,-1.5398,-1.541,-1.5412,-1.5411,-1.5418,-1.5395,-1.5382,-1.5402,-1.5402,-1.5402,-1.5402,-1.5402,-1.5402,-1.4678,-1.4738,-1.4768,-1.485,-1.489,-1.4951,-1.4982,-1.5025,-1.5067,-1.5141,-1.5189,-1.5225,-1.5277,-1.5341,-1.5393,-1.5408,-1.5428,-1.5427,-1.5444,-1.5421,-1.542,-1.5419,-1.5407,-1.5431,-1.5431,-1.5463,-1.5463,-1.5463]}]]